Regional Weather Roundup
Issued by NWS Little Rock, AR

Home | Current Version | Previous Version | Text Only | Print | Product List | Glossary On
Versions: 1 2 3 4 5 6 7 8 9 10 11 12 13 14 15 16 17 18 19 20 21 22 23 24 25 26 27 28 29 30 31 32 33 34 35 36 37 38 39 40 41 42 43 44 45 46 47 48 49 50
000
ASUS44 KLZK 240905
RWRLZK

WEATHER ROUNDUP FOR ARKANSAS
NATIONAL WEATHER SERVICE LITTLE ROCK AR
400 AM CDT SUN MAY 24 2015

NOTE: "FAIR" INDICATES FEW OR NO CLOUDS BELOW 12,000 FEET WITH NO
SIGNIFICANT WEATHER AND/OR OBSTRUCTIONS TO VISIBILITY.

ARZ001-003-010-029-241000-
NORTHWEST ARKANSAS

CITY           SKY/WX    TMP DP  RH WIND       PRES   REMARKS
FAYETTEVILLE   LGT RAIN  69  66  90 S10G22    29.96S
FORT SMITH     TSTM      72  67  84 SE10      29.93S
HARRISON       MOCLDY    66  61  84 SE8       30.00F
BENTONVILLE    CLOUDY   N/A N/A N/A S3        29.96S
ROGERS         RAIN      68  65  90 S13       29.97S
SILOAM SPGS    CLOUDY    64  57  77 S8        29.97F
HIGHFILL       HVY RAIN  66  64  93 SW12      29.96R FOG
$$

ARZ004-005-016-241000-
NORTH CENTRAL ARKANSAS

CITY           SKY/WX    TMP DP  RH WIND       PRES   REMARKS
BATESVILLE     PTCLDY    70  59  68 SE5       30.04S
FLIPPIN        PTCLDY    66  57  72 E6        29.99F
MTN HOME       PTCLDY    66  58  75 SE8       30.01F
$$

ARZ040-041-241000-
WEST CENTRAL ARKANSAS

CITY           SKY/WX    TMP DP  RH WIND       PRES   REMARKS
MENA           CLOUDY    73  70  88 S7G25     29.98F
MOUNT IDA      LGT RAIN  71  68  90 VRB5G20   29.96F FOG
$$

ARZ009-017-025-026-028-241000-
NORTHEAST ARKANSAS

CITY           SKY/WX    TMP DP  RH WIND       PRES   REMARKS
CORNING          N/A     68  61  77 SE13      30.08F
JONESBORO      PTCLDY    67  60  78 SE6       30.07F
NEWPORT        MOCLDY    69  61  76 SE9       30.06F
WALNUT RIDGE   PTCLDY    70  57  64 SE10      30.06F
BLYTHEVILLE    MOCLDY    70  61  73 S12       30.11S
$$

ARZ022-023-033-042-044-241000-
CENTRAL ARKANSAS

CITY           SKY/WX    TMP DP  RH WIND       PRES   REMARKS
LITTLE ROCK    CLOUDY    72  64  76 SE6       30.03S
N LITTLE ROCK    N/A     71  67  87 S7        30.03S
SEARCY         MOCLDY    70  63  78 SE3       30.05F
HOT SPRINGS    CLOUDY    73  68  84 S9G20     30.01S
RUSSELLVILLE   CLOUDY    72  66  81 E6        29.99S
CLINTON        FAIR      66  64  94 SE5       30.04S
$$

ARZ036-241000-
EAST ARKANSAS

CITY           SKY/WX    TMP DP  RH WIND       PRES   REMARKS
WEST MEMPHIS   PTCLDY    70  61  73 SE10      30.08F
$$

ARZ050-053-066-070-073-241000-
SOUTHWEST ARKANSAS

CITY           SKY/WX    TMP DP  RH WIND       PRES   REMARKS
ARKADELPHIA    FAIR      73  72  97 S7        30.02S
CAMDEN         MOCLDY    72  66  83 NE6       30.03S
TEXARKANA      MOCLDY    73  70  90 S12G20    29.98F
EL DORADO      CLOUDY    73  69  87 SE7       30.04F
DE QUEEN       CLOUDY    74  70  87 VRB5      29.94F
$$

ARZ056-057-069-241000-
SOUTHEAST ARKANSAS

CITY           SKY/WX    TMP DP  RH WIND       PRES   REMARKS
PINE BLUFF     PTCLDY    72  66  81 S8        30.04F
STUTTGART      PTCLDY    72  64  78 MISG      30.05S
MONTICELLO     CLEAR     71  68  90 S5        30.06S

$$





USA.gov is the U.S. government's official web portal to all federal, state and local government web resources and services.